Skip Page Navigation
NASA JPL Caltech
NASA Logo - Jet Propulsion Laboratory + View the NASA Portal
+ Center for Near-Earth Object Studies
JPL Home Earth Solar System Stars & Galaxies Technology
JPL Solar System Dynamics
BODIES ORBITS EPHEMERIDES TOOLS PHYSICAL DATA DISCOVERY FAQ SITE MAP
JPL Small-Body Database Browser
Search: [ help ]  
24113 (1999 VQ23)
Classification: Main-belt Asteroid          SPK-ID: 2024113
Ephemeris | Orbit Diagram | Orbital Elements | Mission Design | Physical Parameters | Discovery Circumstances ]

[ show orbit diagram ]
Orbital Elements at Epoch 2459200.5 (2020-Dec-17.0) TDB
Reference: JPL 32 (heliocentric ecliptic J2000)
 Element Value Uncertainty (1-sigma)   Units 
e .06831692017236926 1.5309e-08  
a 2.284105629557698 6.5939e-09 au
q 2.128062567597945 3.535e-08 au
i 5.768428295061932 3.1087e-07 deg
node 124.0172993791712 8.4702e-06 deg
peri 3.37468938322211 1.6599e-05 deg
M 323.4850789396158 1.7241e-05 deg
tp 2459328.391172358498
(2021-Apr-23.89117236)
6.0598e-05 TDB
period 1260.876943234308
3.45
5.4599e-06
1.495e-08
d
yr
n .2855155706761953 1.2364e-09 deg/d
Q 2.44014869151745 7.0443e-09 au
  Orbit Determination Parameters
   # obs. used (total)      2083  
   data-arc span      13000 days (35.59 yr)  
   first obs. used      1985-08-14  
   last obs. used      2021-03-18  
   planetary ephem.      DE441  
   SB-pert. ephem.      SB441-N16  
   condition code      0  
   norm. resid. RMS      .46103  
   source      ORB  
   producer      Otto Matic  
   solution date      2021-May-04 03:31:44  

Additional Information
 Earth MOID = 1.14313 au 
 Jupiter MOID = 2.58056 au 
 T_jup = 3.593 
[ show covariance matrix ]

Ephemeris | Orbit Diagram | Orbital Elements | Mission Design | Physical Parameters | Discovery Circumstances ]

Physical Parameter Table
Parameter Symbol Value Units Sigma Reference Notes
absolute magnitude H 14.34   n/a E2021B10  

24113 (1999 VQ23)          Discovered 1999-Nov-14 by Juels, C. W. at Fountain Hills
Reference: 20010408/Numbers.arcLast Updated: 2004-04-19

Alternate Designations
 1999 VQ23 = 1985 PH1 = 1989 YQ5 
Ephemeris | Orbit Diagram | Orbital Elements | Mission Design | Physical Parameters | Discovery Circumstances ]
ABOUT SSD CREDITS/AWARDS PRIVACY/COPYRIGHT GLOSSARY LINKS
FirstGov 2021-Jun-19 11:53 UT
(server date/time)  
NASA Home Page
Site Manager:   Ryan S. Park
Webmaster  Alan B. Chamberlin